| time (UTC) | temp F | wind direction | speed MPH | gust MPH | rain 1hr in | rain 24hr in | rain mn in | humidity % | barometer mb |
| 20260506194848 | 67 | 0.0 | 0.0 | 0.00 | 0.00 | 0.00 | 53 | 1009.9 | |
| 20260506193848 | 67 | 0.0 | 0.0 | 0.00 | 0.00 | 0.00 | 54 | 1009.6 | |
| 20260506192916 | 65 | 0.0 | 0.0 | 0.00 | 0.00 | 0.00 | 56 | 1009.7 | |
| 20260506191844 | 62 | 0.0 | 0.0 | 0.00 | 0.00 | 0.00 | 62 | 1009.7 | |
| 20260506190848 | 63 | 0.0 | 0.0 | 0.00 | 0.00 | 0.00 | 58 | 1009.1 | |
| 20260506185848 | 64 | 0.0 | 0.0 | 0.00 | 0.00 | 0.00 | 60 | 1009.1 | |
| 20260506184915 | 64 | 0.0 | 0.0 | 0.00 | 0.00 | 0.00 | 59 | 1009.1 | |
| 20260506183848 | 64 | 0.0 | 0.0 | 0.00 | 0.00 | 0.00 | 58 | 1008.9 | |
| 20260506182845 | 66 | 0.0 | 0.0 | 0.00 | 0.00 | 0.00 | 54 | 1008.2 | |
| 20260506180845 | 66 | 0.0 | 0.0 | 0.00 | 0.00 | 0.00 | 55 | 1007.9 | |
| 20260506175844 | 68 | 0.0 | 0.0 | 0.00 | 0.00 | 0.00 | 53 | 1007.4 | |
| 20260506174844 | 68 | 0.0 | 0.0 | 0.00 | 0.00 | 0.00 | 53 | 1007.2 | |
| 20260506173844 | 69 | 0.0 | 0.0 | 0.00 | 0.00 | 0.00 | 50 | 1007.0 | |
| 20260506172844 | 65 | 0.0 | 0.0 | 0.00 | 0.00 | 0.00 | 56 | 1007.3 | |
| 20260506171844 | 67 | 0.0 | 0.0 | 0.00 | 0.00 | 0.00 | 54 | 1006.9 | |
| 20260506170845 | 67 | 0.0 | 0.0 | 0.00 | 0.00 | 0.00 | 54 | 1006.9 | |
| 20260506165845 | 68 | 0.0 | 0.0 | 0.00 | 0.00 | 0.00 | 52 | 1006.8 | |
| 20260506164844 | 72 | 0.0 | 0.0 | 0.00 | 0.00 | 0.00 | 46 | 1006.3 | |
| 20260506163845 | 67 | 0.0 | 0.0 | 0.00 | 0.00 | 0.00 | 52 | 1006.8 | |
| 20260506162845 | 67 | 0.0 | 0.0 | 0.00 | 0.00 | 0.00 | 52 | 1006.8 | |
| 20260506161846 | 69 | 0.0 | 0.0 | 0.00 | 0.00 | 0.00 | 48 | 1006.6 | |
| 20260506160849 | 69 | 0.0 | 0.0 | 0.00 | 0.00 | 0.00 | 48 | 1006.3 | |
| 20260506155844 | 71 | 0.0 | 0.0 | 0.00 | 0.00 | 0.00 | 46 | 1006.2 | |
| 20260506154845 | 70 | 0.0 | 0.0 | 0.00 | 0.00 | 0.00 | 47 | 1006.3 | |
| 20260506153901 | 70 | 0.0 | 0.0 | 0.00 | 0.00 | 0.00 | 49 | 1006.3 | |
| 20260506151849 | 67 | 0.0 | 0.0 | 0.00 | 0.00 | 0.00 | 53 | 1006.6 | |
| 20260506150845 | 69 | 0.0 | 0.0 | 0.00 | 0.00 | 0.00 | 51 | 1006.4 | |
| 20260506145900 | 68 | 0.0 | 0.0 | 0.00 | 0.00 | 0.00 | 52 | 1006.5 | |
| 20260506144845 | 68 | 0.0 | 0.0 | 0.00 | 0.00 | 0.00 | 53 | 1006.5 | |
| 20260506143901 | 70 | 0.0 | 0.0 | 0.00 | 0.00 | 0.00 | 49 | 1006.2 | |
| 20260506142845 | 68 | 0.0 | 0.0 | 0.00 | 0.00 | 0.00 | 54 | 1006.5 | |
| 20260506141848 | 69 | 0.0 | 0.0 | 0.00 | 0.00 | 0.00 | 50 | 1006.4 | |
| 20260506140845 | 70 | 0.0 | 0.0 | 0.00 | 0.00 | 0.00 | 49 | 1006.2 | |
| 20260506135846 | 70 | 0.0 | 0.0 | 0.00 | 0.00 | 0.00 | 45 | 1006.3 | |
| 20260506134849 | 72 | 0.0 | 0.0 | 0.00 | 0.00 | 0.00 | 42 | 1006.1 | |
| 20260506133905 | 69 | 0.0 | 0.0 | 0.00 | 0.00 | 0.00 | 44 | 1006.6 | |
| 20260506132927 | 71 | 0.0 | 0.0 | 0.00 | 0.00 | 0.00 | 43 | 1006.4 | |
| 20260506130900 | 71 | 0.0 | 0.0 | 0.00 | 0.00 | 0.00 | 45 | 1006.4 | |
| 20260506125904 | 71 | 0.0 | 0.0 | 0.00 | 0.00 | 0.00 | 45 | 1006.5 | |
| 20260506124849 | 72 | 0.0 | 0.0 | 0.00 | 0.00 | 0.00 | 45 | 1006.4 | |
| 20260506123849 | 69 | 0.0 | 0.0 | 0.00 | 0.00 | 0.00 | 45 | 1006.7 | |
| 20260506122849 | 70 | 0.0 | 0.0 | 0.00 | 0.00 | 0.00 | 47 | 1006.6 | |
| 20260506121901 | 70 | 0.0 | 0.0 | 0.00 | 0.00 | 0.00 | 46 | 1006.7 | |
| 20260506120849 | 68 | 0.0 | 0.0 | 0.00 | 0.00 | 0.00 | 48 | 1006.9 | |
| 20260506115849 | 68 | 0.0 | 0.0 | 0.00 | 0.00 | 0.00 | 47 | 1007.0 | |
| 20260506114849 | 70 | 0.0 | 0.0 | 0.00 | 0.00 | 0.00 | 44 | 1006.7 | |
| 20260506113845 | 69 | 0.0 | 0.0 | 0.00 | 0.00 | 0.00 | 46 | 1007.0 | |
| 20260506112849 | 67 | 0.0 | 0.0 | 0.00 | 0.00 | 0.00 | 46 | 1007.3 | |
| 20260506111850 | 69 | 0.0 | 0.0 | 0.00 | 0.00 | 0.00 | 47 | 1007.1 | |
| 20260506110846 | 65 | 0.0 | 0.0 | 0.00 | 0.00 | 0.00 | 51 | 1007.7 | |
| 20260506105904 | 69 | 0.0 | 0.0 | 0.00 | 0.00 | 0.00 | 49 | 1007.5 | |
| 20260506104904 | 68 | 0.0 | 0.0 | 0.00 | 0.00 | 0.00 | 49 | 1007.6 | |
| 20260506103846 | 66 | 0.0 | 0.0 | 0.00 | 0.00 | 0.00 | 51 | 1008.0 | |
| 20260506102849 | 70 | 0.0 | 0.0 | 0.00 | 0.00 | 0.00 | 46 | 1007.6 | |
| 20260506101849 | 70 | 0.0 | 0.0 | 0.00 | 0.00 | 0.00 | 46 | 1007.6 | |
| 20260506100846 | 70 | 0.0 | 0.0 | 0.00 | 0.00 | 0.00 | 45 | 1007.8 | |
| 20260506095849 | 71 | 0.0 | 0.0 | 0.00 | 0.00 | 0.00 | 43 | 1007.7 | |
| 20260506094849 | 68 | 0.0 | 0.0 | 0.00 | 0.00 | 0.00 | 48 | 1008.1 | |
| 20260506093905 | 67 | 0.0 | 0.0 | 0.00 | 0.00 | 0.00 | 49 | 1008.2 | |
| 20260506092849 | 71 | 0.0 | 0.0 | 0.00 | 0.00 | 0.00 | 43 | 1007.9 | |
| 20260506091845 | 70 | 0.0 | 0.0 | 0.00 | 0.00 | 0.00 | 44 | 1007.9 | |
| 20260506090845 | 69 | 0.0 | 0.0 | 0.00 | 0.00 | 0.00 | 44 | 1008.1 | |
| 20260506085846 | 69 | 0.0 | 0.0 | 0.00 | 0.00 | 0.00 | 44 | 1008.0 | |
| 20260506084849 | 67 | 0.0 | 0.0 | 0.00 | 0.00 | 0.00 | 45 | 1008.2 | |
| 20260506083846 | 70 | 0.0 | 0.0 | 0.00 | 0.00 | 0.00 | 43 | 1007.8 | |
| 20260506082846 | 69 | 0.0 | 0.0 | 0.00 | 0.00 | 0.00 | 43 | 1007.8 | |
| 20260506081920 | 69 | 0.0 | 0.0 | 0.00 | 0.00 | 0.00 | 44 | 1007.9 | |
| 20260506080846 | 67 | 0.0 | 0.0 | 0.00 | 0.00 | 0.00 | 45 | 1008.0 | |
| 20260506072846 | 68 | 0.0 | 0.0 | 0.00 | 0.00 | 0.00 | 44 | 1008.2 | |
| 20260506071840 | 68 | 0.0 | 0.0 | 0.00 | 0.00 | 0.00 | 44 | 1008.2 | |
| 20260506070855 | 66 | 0.0 | 0.0 | 0.00 | 0.00 | 0.00 | 48 | 1008.5 | |
| 20260506061934 | 63 | 0.0 | 0.0 | 0.00 | 0.00 | 0.00 | 50 | 1009.5 | |
| 20260506060850 | 67 | 0.0 | 0.0 | 0.00 | 0.00 | 0.00 | 47 | 1008.9 | |
| 20260506050846 | 65 | 0.0 | 0.0 | 0.00 | 0.00 | 0.00 | 55 | 1009.5 | |
| 20260506010902 | 64 | 0.0 | 0.0 | 0.00 | 0.00 | 0.00 | 58 | 1011.4 | |
| 20260506003903 | 65 | 0.0 | 0.0 | 0.00 | 0.00 | 0.00 | 56 | 1011.9 | |
| 20260505210911 | 65 | 0.0 | 0.0 | 0.00 | 0.00 | 0.00 | 53 | 1013.6 | |
| 20260505204847 | 67 | 0.0 | 0.0 | 0.00 | 0.00 | 0.00 | 52 | 1013.3 | |
| 20260505203915 | 63 | 0.0 | 0.0 | 0.00 | 0.00 | 0.00 | 58 | 1014.2 | |
| 20260505202903 | 66 | 0.0 | 0.0 | 0.00 | 0.00 | 0.00 | 53 | 1013.6 | |
| 20260505201848 | 60 | 0.0 | 0.0 | 0.00 | 0.00 | 0.00 | 62 | 1014.5 | |
| 20260505200848 | 66 | 0.0 | 0.0 | 0.00 | 0.00 | 0.00 | 53 | 1013.7 | |
| 20260505195903 | 64 | 0.0 | 0.0 | 0.00 | 0.00 | 0.00 | 57 | 1014.0 |